Wind_Speed
95 95 95 96 97 98 100 102 104 107 108 110 112 114 116 119 121 123 124 126 126 126 126 126 125 123 122 120 119 118 116 115 114 114 115 115 116 117 118 119 119 118 117 117 117 117 117 117 117 117 117 117 117 117 116 115 115 115 115 115 116 116 117
98 98 99 100 101 102 104 106 107 109 111 113 115 117 120 122 124 125 126 126 126 125 125 124 122 121 120 119 118 116 115 114 113 113 113 113 114 114 115 116 116 115 115 115 115 115 116 116 116 115 116 116 115 115 115 114 114 114 114 114 114 115 116
101 101 102 103 105 106 107 109 110 112 114 116 118 121 123 125 126 126 126 126 125 124 122 121 120 119 118 117 116 115 114 113 113 113 112 112 112 112 112 113 113 112 111 111 111 112 113 113 114 114 114 114 114 113 113 113 113 114 113 113 113 113 113
104 105 106 107 108 109 111 112 114 116 118 120 122 124 126 126 126 126 125 124 122 121 120 118 117 116 116 115 114 113 113 113 113 112 112 111 110 110 110 110 109 108 107 107 107 108 109 110 110 111 111 111 111 111 111 112 112 112 112 111 111 110 110
107 108 109 110 112 113 114 116 118 120 122 123 125 126 126 126 125 124 122 121 119 118 117 116 114 114 113 112 112 111 112 112 112 111 110 109 109 108 107 106 105 104 104 103 103 104 105 105 106 107 108 108 108 108 109 109 109 109 109 108 108 108 108
109 111 113 114 115 117 118 120 122 124 125 125 126 125 125 124 123 121 120 118 116 115 114 112 111 111 110 110 110 110 110 110 110 109 108 107 107 106 105 103 102 101 101 100 100 100 100 101 102 103 104 104 105 105 106 106 106 105 105 105 105 106 106
112 114 116 117 119 121 122 124 125 125 125 125 124 124 123 122 120 119 117 115 113 112 111 110 109 109 109 109 109 109 109 108 107 107 106 105 104 104 102 100 99 98 97 96 96 96 96 97 98 98 99 101 102 103 102 102 101 100 101 103 103 103 104
114 116 118 120 122 124 125 125 125 124 124 123 122 121 120 119 118 116 114 112 110 109 108 108 107 107 107 107 107 107 107 106 105 105 104 103 102 101 99 98 96 95 94 93 93 93 93 94 94 95 96 98 99 100 99 99 97 95 97 99 100 100 101
117 119 121 123 124 124 124 123 122 122 121 121 120 119 117 116 114 112 111 109 108 107 107 106 106 106 106 106 105 105 105 104 104 103 101 101 100 98 96 95 93 92 91 91 90 90 90 90 90 92 94 95 96 96 95 94 93 92 93 95 95 96 98
120 121 122 122 122 122 121 120 120 119 118 118 117 116 114 112 110 109 108 107 106 106 105 105 104 104 104 103 103 103 103 102 101 100 99 98 96 95 93 92 90 89 89 88 87 87 88 87 88 90 91 91 91 91 90 89 89 89 90 91 91 91 95
119 120 120 119 119 118 118 117 116 116 115 115 114 112 110 109 107 106 105 105 104 103 103 103 102 102 102 101 101 101 101 100 99 98 96 94 93 91 90 89 88 87 87 86 85 85 85 85 86 87 88 88 87 87 86 86 86 87 87 87 87 87 90
117 117 116 116 116 115 114 114 113 113 112 111 110 108 107 105 105 104 103 102 101 101 101 100 100 99 99 99 99 99 98 97 96 95 93 91 89 88 87 87 86 85 84 83 82 82 83 84 85 85 85 85 84 83 83 84 85 85 85 85 84 84 85
114 114 113 113 113 112 111 111 110 110 109 108 107 105 103 102 102 101 100 99 99 98 98 97 97 97 97 97 97 97 96 95 93 91 90 88 86 85 85 85 84 83 83 82 81 81 81 83 84 83 83 83 83 82 83 83 84 85 84 83 83 83 84
111 111 110 110 109 109 108 108 107 107 106 105 104 102 100 98 98 98 97 96 96 96 95 95 95 95 95 95 95 94 93 92 90 89 87 85 84 83 83 83 83 82 82 82 82 81 81 82 82 81 82 83 84 83 83 84 84 84 83 82 82 82 84
108 108 107 107 107 106 105 105 104 104 103 102 100 99 97 94 94 94 94 93 93 93 93 93 93 93 93 93 93 92 91 90 89 87 85 84 83 83 82 82 82 83 83 83 82 82 81 81 81 81 82 83 84 84 84 84 83 82 82 81 81 81 83
105 105 105 104 104 103 102 101 100 100 99 98 97 96 94 91 90 90 91 91 91 91 91 91 91 91 91 90 91 91 90 89 87 85 84 83 83 83 82 81 83 84 84 84 83 81 79 78 79 81 81 82 83 83 84 83 82 82 82 81 79 80 83
102 102 101 101 100 99 98 97 97 96 95 95 94 93 91 88 87 87 88 88 89 89 89 89 89 88 89 89 90 90 90 88 86 84 83 83 83 82 82 82 84 85 84 84 82 80 78 78 78 79 79 80 81 83 84 83 81 82 82 80 77 79 82
99 98 97 96 96 95 94 93 93 93 92 91 91 90 89 87 85 85 85 85 86 86 87 87 87 88 88 88 89 90 89 88 85 83 82 82 82 82 81 83 85 85 83 82 81 80 79 78 78 78 78 78 80 82 83 82 81 82 82 78 77 78 81
94 93 92 92 91 91 90 90 90 89 89 88 88 88 87 85 83 83 83 83 83 83 84 85 86 87 87 88 89 89 89 88 85 83 81 81 81 81 82 84 85 83 81 81 80 80 79 78 77 77 76 78 80 82 83 81 79 79 79 78 77 78 80
89 88 88 88 88 88 87 87 87 87 87 86 86 85 84 83 82 81 81 81 81 82 82 84 85 86 86 87 87 88 88 88 87 84 82 81 80 81 82 84 83 81 80 80 80 80 80 79 78 77 76 77 78 80 81 79 75 73 74 75 76 78 80
85 85 85 85 85 85 85 85 85 85 84 84 83 83 82 81 80 80 80 80 81 81 82 83 83 84 84 85 85 85 86 86 87 86 83 81 81 81 82 82 80 79 79 79 79 80 80 80 80 80 77 75 75 76 77 76 72 69 69 70 73 77 79
83 83 83 83 84 84 83 83 82 82 82 82 82 82 81 80 79 79 79 79 80 81 81 82 82 83 83 83 83 83 84 84 85 84 83 81 81 81 81 80 78 77 77 77 78 79 80 81 83 82 79 75 73 72 71 71 70 69 68 68 70 73 75
81 81 81 81 81 81 81 81 80 81 81 82 81 81 80 79 79 79 78 78 79 79 80 80 81 82 82 82 82 82 83 83 83 83 83 82 81 79 79 78 77 76 75 75 75 77 78 81 83 83 80 76 72 69 67 67 68 69 68 67 68 69 70
79 79 79 79 79 79 79 79 80 80 81 81 80 80 79 78 78 78 78 77 77 77 78 79 80 81 81 81 81 82 83 83 83 83 83 82 81 79 77 76 75 74 72 71 72 74 76 79 81 81 79 77 73 68 66 66 67 67 66 66 66 66 66
77 77 76 76 77 77 78 79 80 80 80 80 79 79 79 79 78 78 77 76 75 76 76 77 79 80 80 80 81 81 82 82 82 82 82 82 81 79 77 76 75 73 70 68 68 71 73 75 77 77 77 76 72 68 66 66 65 65 65 65 65 65 64
75 75 75 75 76 77 78 79 79 79 79 79 79 79 80 79 78 77 76 75 75 75 75 76 76 77 78 80 80 81 81 81 82 82 81 81 81 79 77 75 73 71 69 68 68 68 69 70 72 74 75 74 71 68 66 65 63 63 63 63 64 64 64
74 74 74 75 76 76 77 78 78 78 78 78 78 79 78 78 77 76 75 75 75 75 75 75 75 76 77 78 79 80 80 80 81 81 81 80 79 78 76 73 71 69 68 68 68 67 66 66 68 71 73 72 70 67 65 63 61 61 61 61 61 62 63
74 74 74 74 75 75 76 77 78 78 77 77 77 77 77 77 77 76 75 75 74 74 73 74 75 75 76 76 76 77 78 78 79 79 79 78 77 76 74 72 70 68 68 68 67 66 66 66 66 67 70 70 69 66 64 61 59 59 60 59 59 61 63
73 74 73 73 74 75 75 76 77 77 76 76 76 76 76 76 77 76 76 75 74 73 72 73 74 75 75 75 74 74 75 76 76 76 75 75 75 74 72 71 69 68 68 67 66 66 66 66 65 65 66 67 67 66 64 61 60 59 58 58 58 60 62
72 72 72 72 73 74 74 74 75 75 75 75 75 75 75 75 76 76 76 75 74 72 71 72 73 73 73 73 72 72 72 73 73 72 72 72 72 72 71 70 68 67 66 65 64 65 65 66 65 64 64 64 65 65 64 63 61 59 58 57 57 59 60
72 71 71 71 72 72 72 73 73 74 75 75 75 74 74 74 74 75 75 75 74 72 71 71 71 70 70 70 70 70 70 71 70 70 70 70 70 69 69 68 67 65 64 63 63 64 64 65 65 64 63 63 64 64 64 63 62 60 58 57 57 57 59
72 72 71 71 70 69 70 70 72 73 74 75 75 75 74 73 73 74 73 72 70 69 70 71 71 70 69 69 68 68 69 69 68 68 68 68 67 67 67 66 65 64 62 62 63 63 63 63 64 64 63 63 63 63 63 62 61 60 59 57 57 57 58
70 70 71 70 70 69 69 69 70 71 71 72 72 73 72 73 73 73 73 71 68 66 66 68 69 69 69 69 68 68 68 67 67 66 66 65 65 65 65 64 63 62 62 62 62 62 62 62 63 62 63 63 62 62 61 60 60 60 58 57 57 57 57
70 68 68 68 68 68 68 69 69 69 69 69 69 69 69 69 70 71 71 70 68 67 66 65 65 66 67 67 67 67 67 67 66 66 64 64 64 64 64 63 62 61 60 60 60 60 61 62 61 61 61 62 62 61 61 60 60 59 57 56 56 55 55
72 70 69 68 68 68 68 69 68 68 67 67 66 65 65 65 67 68 69 69 68 66 65 65 64 64 64 64 64 64 65 66 66 66 65 64 63 63 62 62 61 60 59 59 59 59 59 60 60 61 60 61 61 61 61 61 60 59 57 56 55 55 54
72 72 71 70 68 67 67 68 68 68 67 65 64 63 63 64 64 65 66 67 67 66 64 63 63 63 62 63 62 62 63 63 63 64 65 64 63 63 62 61 60 59 58 58 58 58 58 58 59 60 60 60 61 61 61 61 60 59 58 57 55 55 54
Wind_Direction
284 284 284 284 283 283 283 283 283 283 283 283 284 284 284 284 284 284 284 284 284 284 284 284 284 283 283 282 281 280 279 278 277 277 276 275 275 274 274 274 275 275 275 275 274 274 274 273 273 272 272 271 270 270 269 268 266 265 264 263 262 261 260
286 286 285 285 285 284 284 283 283 283 283 284 284 284 284 284 284 284 285 285 285 285 284 284 284 284 284 283 282 281 281 280 278 277 276 276 275 275 275 274 274 274 274 274 274 274 274 273 273 272 272 271 270 270 269 268 267 265 264 263 262 261 260
286 286 286 286 285 285 284 284 284 284 284 284 284 284 284 284 285 285 285 285 285 285 285 285 285 284 284 283 282 282 281 280 280 278 277 277 276 276 275 274 274 274 274 274 273 273 273 273 272 272 271 271 270 270 269 268 267 266 264 263 262 261 260
286 286 286 286 286 285 285 285 284 284 284 284 284 284 285 285 285 285 285 285 285 285 285 285 285 284 284 283 283 282 282 281 280 279 279 278 277 276 276 275 275 274 274 273 273 273 272 272 272 271 271 270 270 269 268 268 267 266 265 264 263 262 261
285 286 286 286 286 286 286 285 285 285 285 285 285 285 285 285 285 285 285 285 285 285 285 285 284 284 284 283 283 283 282 281 281 280 280 279 278 277 277 276 276 275 274 274 273 272 272 272 271 271 271 270 269 269 268 267 267 266 266 265 264 263 262
285 286 286 286 286 286 286 286 286 286 286 286 286 286 286 286 286 286 285 285 285 285 285 285 284 284 284 283 283 282 282 281 281 281 280 280 279 278 278 277 277 276 275 274 273 273 272 272 271 271 271 270 269 268 268 267 267 266 266 266 265 264 263
285 285 286 286 286 286 286 286 286 286 286 286 286 286 286 286 286 286 286 286 286 286 285 285 285 284 284 283 283 282 282 282 281 281 281 280 280 279 279 278 277 277 276 275 275 274 273 272 272 272 271 270 270 269 268 267 267 267 267 266 265 264 263
285 285 285 286 286 286 286 286 286 287 287 287 286 286 286 286 286 286 287 287 286 286 286 285 285 285 284 284 283 283 283 282 282 281 281 280 280 280 279 279 279 278 278 277 276 275 274 273 273 272 271 271 270 269 269 268 268 267 266 266 265 264 263
285 285 285 285 285 286 286 286 286 286 286 286 286 286 286 286 287 287 287 287 287 286 286 285 285 285 284 284 284 283 282 282 281 281 281 281 281 281 281 280 280 280 279 279 278 277 275 275 274 273 272 270 270 269 269 269 268 267 266 265 265 264 264
285 285 285 285 285 286 286 286 286 286 286 286 286 286 286 287 287 287 287 287 286 286 286 285 285 285 284 284 283 282 282 282 282 282 282 282 282 282 282 282 282 281 280 279 278 277 276 275 274 273 272 271 271 270 270 269 269 267 266 265 265 264 264
285 285 285 285 285 286 286 286 286 286 286 286 286 287 287 287 287 287 286 286 286 286 286 285 285 284 284 283 283 282 282 282 282 283 283 283 283 283 283 283 282 281 280 279 279 278 277 276 274 273 273 272 272 271 271 270 269 268 266 266 265 264 264
285 285 285 285 286 286 286 286 286 287 287 287 287 287 287 287 287 286 286 286 286 286 285 285 284 284 283 283 283 283 283 283 283 283 283 283 283 283 283 283 282 281 280 279 278 277 277 276 274 274 273 273 272 272 271 270 269 268 267 266 266 265 265
285 285 286 286 286 286 287 287 287 287 287 287 287 286 286 286 286 286 286 286 286 285 285 284 284 284 284 284 283 283 283 283 283 283 283 283 283 283 282 282 281 280 280 279 277 277 276 275 274 274 275 274 273 272 271 270 269 269 268 268 268 267 266
286 286 286 286 287 287 287 287 287 287 287 287 286 286 286 286 286 286 286 286 285 285 285 285 285 285 284 284 284 284 284 283 283 283 283 283 283 283 282 281 281 280 279 278 277 276 275 275 275 275 275 274 273 272 271 270 269 269 269 269 268 267 267
287 287 287 287 287 287 287 287 287 287 287 287 286 286 286 286 286 286 286 286 286 286 286 285 285 285 285 284 284 284 284 283 283 283 284 284 283 283 282 282 281 280 279 277 276 275 275 276 276 276 275 274 273 272 272 271 270 270 269 268 267 267 267
288 288 288 288 288 288 287 287 287 287 287 287 287 286 286 287 287 287 287 287 287 286 286 285 285 285 285 284 284 284 283 283 283 284 284 284 283 283 283 282 281 279 278 277 276 276 276 276 276 275 275 275 274 273 272 271 271 270 269 268 267 268 267
288 288 288 288 288 288 288 287 287 287 287 287 287 287 287 287 287 287 287 287 286 286 286 285 285 285 284 284 284 283 283 283 284 284 284 284 283 283 282 281 280 278 277 277 278 278 277 276 275 274 274 274 274 273 273 272 271 270 269 268 268 268 267
288 288 288 288 288 288 288 287 287 287 287 287 287 288 288 288 287 287 286 286 285 285 286 285 285 285 284 284 283 283 284 284 284 284 284 283 283 282 281 280 278 278 278 278 278 278 277 275 275 274 273 272 272 271 270 270 270 270 270 269 269 268 268
289 288 288 288 288 288 288 287 287 287 287 288 288 287 287 287 287 286 286 285 285 285 285 285 285 284 284 284 284 285 285 285 284 284 283 282 282 282 281 279 278 279 279 279 279 278 277 275 274 273 272 271 270 270 269 268 269 270 271 271 270 268 267
289 289 289 288 288 288 288 288 288 288 287 287 287 287 287 287 287 286 286 286 285 285 284 284 284 284 284 284 285 285 286 286 285 284 283 283 282 281 280 279 280 281 281 280 280 280 279 277 276 273 271 270 270 270 270 270 269 269 270 271 271 269 267
289 289 289 289 289 288 288 288 288 288 287 287 287 287 287 287 287 287 286 286 285 285 284 284 284 284 284 284 284 284 284 284 284 284 284 283 282 281 280 280 281 281 281 281 282 282 281 280 278 276 274 272 271 271 272 272 272 271 270 269 269 268 268
290 290 289 289 289 288 288 288 288 288 287 287 287 287 288 288 288 287 286 286 286 285 285 285 284 284 284 283 283 283 283 283 283 283 282 282 281 280 280 281 282 281 281 282 283 283 283 282 280 279 277 276 275 274 275 275 275 272 269 267 266 266 267
290 290 289 289 289 289 288 288 288 288 288 288 288 288 288 288 288 287 286 286 286 286 286 285 285 284 284 284 284 284 283 283 283 282 282 281 281 280 281 281 281 281 281 282 282 282 282 281 281 280 280 279 278 277 276 276 274 272 270 268 266 266 266
290 289 289 289 289 289 289 289 289 289 289 289 289 289 289 288 288 287 286 286 286 286 285 285 285 284 284 285 285 284 284 283 283 283 283 283 282 282 282 281 281 281 280 280 280 280 280 279 280 280 281 280 279 279 277 275 274 273 272 270 268 267 266
290 290 290 290 290 290 290 290 290 290 290 290 290 290 289 288 288 287 287 286 286 285 285 285 285 285 286 285 285 284 284 284 284 284 284 284 284 284 283 283 282 282 281 280 279 278 277 278 278 279 279 279 279 278 277 275 274 273 272 271 270 268 267
291 291 291 291 291 291 291 291 291 290 290 290 290 290 289 288 288 287 287 287 287 286 286 286 285 286 286 285 285 285 285 285 285 284 284 285 285 285 285 284 284 283 282 281 279 277 277 277 278 278 278 278 278 277 276 275 274 274 272 271 270 269 267
292 292 292 292 292 292 291 291 291 291 291 291 290 289 289 289 288 288 288 288 288 287 287 287 286 285 284 284 284 285 285 285 285 285 285 285 285 285 285 285 284 284 283 281 280 279 278 278 277 278 278 278 277 277 276 275 274 273 272 271 270 269 268
293 293 293 293 292 292 292 292 291 291 291 291 290 290 290 290 290 290 290 289 288 288 287 287 286 285 285 284 284 284 284 284 284 285 285 286 285 285 285 285 285 284 283 282 281 280 279 278 277 277 277 277 277 277 276 274 273 272 271 270 269 268 268
294 294 294 293 293 293 292 292 292 292 291 291 291 291 291 291 291 291 290 289 289 288 288 287 286 286 285 285 285 284 284 284 284 284 285 285 285 285 285 285 284 283 283 282 281 281 280 278 277 276 276 277 277 277 276 274 273 271 270 269 268 267 267
294 294 294 294 293 293 293 293 293 293 292 292 292 292 292 292 292 291 291 290 290 289 288 287 287 287 286 286 286 285 285 284 284 284 284 284 284 284 284 284 283 282 282 282 281 280 279 278 277 277 277 277 277 277 276 275 274 272 270 268 267 266 266
295 294 294 293 293 293 294 294 294 294 294 293 293 293 292 292 292 291 291 291 291 292 291 290 288 288 287 287 286 286 285 285 284 284 284 284 284 284 283 283 283 282 282 281 280 279 278 278 278 278 277 276 276 276 276 275 275 274 272 270 269 268 267
296 295 295 294 294 295 295 295 294 294 294 294 294 294 294 294 293 292 291 291 292 292 292 291 291 290 289 288 287 286 286 285 285 285 284 284 284 283 283 283 282 282 282 281 279 279 278 278 278 278 277 277 276 275 275 275 274 274 273 272 271 269 268
296 296 296 297 297 297 296 295 294 294 294 294 294 295 295 295 294 294 293 293 293 292 291 290 290 291 290 290 289 288 287 286 286 285 284 284 284 283 283 282 282 281 281 280 279 279 278 278 277 277 277 277 276 275 275 274 273 273 272 272 271 270 269
297 297 298 298 298 298 297 296 295 295 294 294 294 295 295 295 295 294 294 294 294 293 292 291 291 290 290 289 289 289 289 288 287 286 285 285 284 283 283 282 282 281 280 279 278 278 277 277 276 276 276 275 275 275 275 274 273 272 272 271 270 269 269
301 301 300 300 299 299 298 298 297 296 296 296 296 296 296 295 295 295 295 295 294 294 293 293 291 290 289 289 288 288 288 288 288 288 287 287 285 284 283 282 281 281 280 279 278 277 276 276 275 275 275 274 274 274 274 273 273 272 272 271 270 269 268
302 302 302 302 301 301 301 300 300 300 299 299 299 298 297 296 296 295 295 295 294 294 293 292 291 290 290 289 289 288 287 287 286 287 287 287 287 286 285 284 282 281 280 278 277 276 275 275 274 274 274 274 273 273 272 272 272 272 271 270 269 269 267
Height
10198 10196 10195 10193 10190 10186 10181 10176 10170 10165 10160 10156 10153 10147 10142 10137 10131 10126 10122 10116 10111 10106 10100 10095 10092 10089 10086 10082 10079 10076 10074 10071 10067 10063 10060 10056 10052 10049 10045 10042 10040 10041 10041 10037 10035 10032 10029 10026 10024 10023 10019 10016 10015 10013 10013 10014 10015 10014 10013 10013 10014 10014 10014
10179 10178 10177 10175 10172 10168 10164 10159 10154 10149 10145 10140 10135 10129 10124 10118 10113 10108 10103 10097 10092 10087 10081 10077 10073 10069 10065 10060 10056 10054 10051 10048 10044 10041 10038 10035 10032 10030 10028 10024 10022 10023 10023 10021 10017 10014 10010 10006 10004 10003 9999 9995 9995 9994 9992 9992 9992 9991 9992 9993 9994 9995 9995
10162 10161 10159 10156 10153 10149 10145 10141 10137 10132 10127 10123 10117 10111 10105 10099 10094 10089 10084 10078 10073 10068 10063 10059 10055 10050 10044 10039 10036 10033 10030 10025 10022 10018 10016 10014 10013 10011 10008 10005 10003 10004 10005 10003 10000 9996 9992 9987 9984 9982 9980 9976 9975 9975 9973 9971 9970 9969 9970 9971 9974 9977 9978
10146 10143 10140 10138 10134 10130 10126 10122 10118 10113 10108 10103 10097 10091 10086 10080 10075 10070 10065 10060 10055 10050 10046 10042 10037 10031 10026 10020 10017 10013 10009 10004 10000 9997 9995 9994 9992 9990 9988 9985 9985 9986 9985 9984 9982 9979 9974 9970 9965 9962 9960 9958 9956 9955 9953 9951 9950 9949 9949 9952 9955 9957 9959
10130 10126 10122 10119 10115 10111 10107 10102 10097 10092 10088 10083 10077 10071 10066 10060 10055 10050 10045 10041 10037 10033 10028 10024 10019 10013 10007 10003 9999 9994 9989 9984 9980 9977 9976 9974 9971 9968 9967 9967 9967 9967 9966 9965 9963 9960 9957 9953 9948 9944 9941 9940 9938 9936 9934 9933 9932 9931 9932 9935 9937 9937 9938
10114 10109 10105 10101 10096 10091 10087 10081 10076 10072 10067 10062 10056 10050 10045 10040 10035 10031 10027 10023 10019 10015 10010 10005 10000 9995 9989 9985 9980 9975 9970 9965 9962 9959 9957 9955 9951 9948 9948 9948 9948 9947 9946 9946 9944 9942 9939 9936 9931 9927 9923 9921 9918 9917 9916 9915 9915 9917 9917 9917 9918 9918 9917
10099 10093 10088 10083 10077 10072 10066 10061 10057 10052 10047 10041 10035 10030 10024 10020 10015 10011 10007 10004 10000 9996 9991 9987 9982 9977 9971 9966 9961 9956 9952 9947 9944 9941 9939 9936 9933 9930 9930 9930 9930 9928 9927 9927 9926 9923 9920 9917 9914 9911 9907 9902 9898 9898 9898 9898 9901 9904 9901 9897 9899 9900 9899
10082 10076 10070 10064 10058 10052 10047 10042 10038 10032 10026 10021 10015 10010 10005 10000 9997 9993 9989 9985 9981 9977 9973 9968 9963 9958 9952 9947 9943 9938 9934 9930 9927 9924 9921 9919 9915 9913 9913 9912 9911 9910 9909 9908 9907 9904 9901 9899 9897 9894 9890 9885 9880 9880 9881 9880 9885 9890 9885 9879 9881 9883 9881
10064 10058 10052 10045 10039 10034 10028 10023 10019 10013 10007 10001 9995 9991 9987 9983 9979 9975 9971 9968 9963 9959 9954 9949 9944 9940 9934 9930 9925 9920 9916 9912 9909 9906 9904 9902 9899 9897 9896 9895 9894 9892 9891 9889 9888 9886 9883 9881 9880 9876 9871 9868 9865 9864 9866 9865 9867 9871 9869 9864 9866 9867 9863
10045 10039 10033 10027 10021 10015 10010 10005 10000 9994 9989 9983 9977 9973 9969 9965 9962 9959 9954 9950 9945 9941 9936 9931 9926 9922 9917 9913 9908 9903 9899 9895 9892 9890 9888 9885 9883 9881 9880 9878 9877 9875 9873 9871 9870 9869 9865 9864 9863 9857 9852 9852 9851 9849 9851 9852 9851 9852 9852 9850 9853 9853 9847
10026 10020 10014 10009 10003 9997 9992 9987 9981 9976 9970 9964 9959 9955 9952 9949 9945 9941 9937 9933 9928 9923 9918 9913 9909 9904 9900 9895 9891 9886 9882 9879 9876 9873 9871 9869 9868 9866 9864 9862 9861 9859 9856 9855 9854 9852 9849 9847 9844 9839 9836 9836 9836 9835 9836 9836 9834 9834 9836 9835 9838 9839 9835
10007 10001 9996 9990 9984 9979 9974 9969 9963 9957 9951 9946 9942 9939 9936 9933 9928 9924 9920 9916 9911 9906 9901 9896 9892 9887 9883 9878 9873 9869 9865 9863 9860 9858 9856 9855 9854 9853 9850 9847 9845 9843 9841 9840 9839 9837 9834 9830 9826 9824 9822 9821 9821 9822 9822 9820 9818 9818 9819 9821 9822 9824 9821
9988 9983 9977 9971 9966 9961 9956 9951 9945 9939 9933 9929 9925 9921 9920 9917 9912 9907 9904 9899 9894 9889 9885 9880 9875 9870 9866 9861 9856 9852 9849 9847 9845 9843 9842 9841 9840 9839 9836 9833 9830 9829 9827 9825 9824 9823 9820 9814 9810 9811 9809 9806 9806 9807 9806 9805 9804 9803 9804 9807 9808 9807 9805
9970 9965 9959 9953 9948 9943 9938 9933 9928 9921 9916 9912 9908 9904 9903 9902 9897 9891 9887 9884 9878 9873 9868 9864 9859 9854 9849 9844 9840 9836 9833 9831 9829 9828 9828 9828 9827 9825 9822 9819 9817 9814 9812 9810 9808 9808 9805 9800 9798 9798 9797 9791 9789 9790 9790 9790 9790 9790 9792 9793 9793 9791 9789
9951 9946 9940 9935 9930 9925 9921 9916 9910 9904 9899 9895 9891 9886 9885 9887 9883 9875 9870 9867 9862 9857 9852 9847 9842 9838 9833 9828 9824 9820 9817 9815 9814 9814 9815 9814 9812 9810 9807 9805 9802 9797 9795 9794 9793 9793 9792 9790 9786 9784 9782 9778 9775 9775 9775 9775 9777 9778 9778 9778 9778 9776 9772
9932 9927 9922 9917 9912 9908 9904 9899 9892 9887 9882 9878 9874 9870 9868 9871 9869 9861 9855 9851 9845 9841 9836 9831 9827 9823 9818 9814 9809 9804 9801 9800 9800 9801 9801 9799 9797 9794 9793 9791 9786 9780 9778 9777 9777 9779 9781 9779 9774 9770 9767 9763 9761 9760 9758 9759 9763 9763 9760 9762 9765 9762 9754
9915 9910 9905 9900 9895 9890 9887 9882 9876 9871 9867 9862 9858 9854 9852 9854 9853 9847 9842 9836 9830 9825 9821 9817 9813 9808 9804 9800 9794 9789 9786 9786 9787 9789 9788 9785 9782 9780 9779 9775 9768 9763 9763 9763 9763 9764 9765 9765 9762 9758 9756 9752 9748 9745 9742 9744 9747 9745 9743 9748 9752 9746 9739
9898 9894 9888 9883 9879 9874 9870 9865 9860 9855 9852 9848 9843 9840 9838 9837 9836 9833 9829 9823 9817 9812 9808 9803 9798 9793 9789 9784 9779 9774 9773 9772 9773 9775 9775 9771 9767 9766 9764 9759 9751 9748 9751 9750 9749 9749 9749 9749 9747 9745 9743 9740 9736 9731 9729 9731 9733 9730 9728 9734 9736 9731 9726
9882 9878 9872 9867 9863 9859 9854 9850 9845 9841 9837 9834 9830 9826 9824 9822 9821 9818 9815 9811 9806 9801 9796 9790 9784 9779 9774 9770 9764 9759 9757 9755 9756 9760 9760 9757 9754 9751 9747 9740 9735 9737 9738 9735 9734 9733 9732 9733 9732 9731 9730 9727 9721 9716 9715 9718 9723 9721 9718 9719 9718 9715 9713
9867 9862 9857 9852 9848 9843 9839 9835 9830 9827 9824 9820 9816 9812 9810 9809 9807 9804 9800 9797 9793 9789 9784 9778 9772 9766 9762 9757 9752 9747 9743 9739 9737 9740 9742 9742 9740 9737 9731 9724 9723 9724 9723 9720 9718 9716 9713 9714 9714 9713 9713 9712 9708 9704 9702 9704 9710 9713 9710 9707 9702 9697 9697
9852 9847 9842 9837 9833 9828 9824 9820 9816 9813 9809 9806 9803 9799 9796 9795 9793 9789 9785 9782 9778 9774 9770 9764 9760 9755 9750 9746 9742 9737 9733 9728 9723 9722 9725 9726 9724 9720 9715 9713 9714 9713 9708 9705 9703 9699 9696 9694 9692 9691 9693 9695 9695 9693 9690 9690 9695 9699 9699 9695 9688 9682 9681
9837 9832 9828 9823 9818 9814 9810 9807 9803 9799 9795 9792 9789 9786 9783 9782 9779 9775 9771 9768 9763 9759 9754 9750 9745 9741 9736 9733 9730 9726 9722 9717 9712 9710 9710 9711 9709 9705 9702 9701 9702 9701 9697 9693 9690 9685 9681 9676 9672 9670 9673 9677 9680 9680 9680 9679 9679 9679 9680 9680 9676 9672 9670
9823 9818 9814 9809 9805 9801 9797 9793 9790 9786 9781 9777 9775 9773 9770 9768 9764 9761 9758 9755 9751 9745 9741 9736 9731 9726 9721 9718 9715 9712 9707 9703 9699 9696 9695 9694 9693 9694 9692 9690 9689 9688 9686 9684 9680 9674 9669 9662 9656 9654 9656 9659 9663 9666 9667 9666 9663 9661 9662 9664 9663 9661 9660
9809 9805 9801 9797 9792 9788 9784 9780 9776 9771 9768 9764 9762 9759 9756 9753 9749 9746 9743 9741 9738 9733 9728 9723 9717 9712 9708 9705 9701 9696 9692 9688 9685 9681 9678 9677 9677 9678 9679 9677 9676 9675 9675 9675 9671 9664 9658 9652 9645 9642 9642 9643 9646 9651 9653 9651 9649 9648 9648 9649 9648 9649 9649
9796 9793 9789 9785 9780 9776 9771 9767 9762 9758 9754 9751 9748 9744 9741 9738 9735 9731 9729 9727 9725 9720 9716 9710 9704 9699 9695 9691 9686 9682 9677 9674 9671 9667 9664 9662 9660 9661 9662 9661 9660 9660 9661 9662 9659 9654 9648 9642 9636 9633 9631 9630 9632 9636 9638 9637 9637 9637 9636 9635 9634 9635 9636
9784 9780 9777 9773 9768 9763 9758 9754 9749 9745 9741 9738 9735 9730 9725 9722 9720 9717 9714 9712 9709 9705 9702 9698 9693 9688 9683 9676 9671 9668 9664 9660 9656 9653 9651 9648 9646 9645 9646 9646 9645 9645 9645 9644 9643 9640 9638 9633 9627 9622 9619 9618 9620 9622 9624 9625 9625 9625 9624 9623 9622 9621 9620
9772 9768 9765 9761 9756 9751 9746 9741 9736 9732 9729 9725 9721 9716 9711 9707 9705 9703 9701 9698 9695 9691 9688 9684 9680 9676 9671 9665 9660 9655 9651 9647 9643 9639 9637 9635 9632 9631 9631 9631 9630 9630 9629 9627 9625 9625 9624 9622 9618 9612 9607 9605 9607 9609 9611 9613 9614 9613 9612 9611 9611 9609 9606
9760 9756 9753 9749 9744 9739 9734 9728 9723 9719 9716 9712 9706 9702 9697 9693 9690 9688 9686 9684 9681 9678 9676 9671 9666 9661 9657 9654 9650 9645 9641 9636 9632 9628 9625 9622 9620 9618 9617 9617 9617 9616 9614 9612 9610 9610 9609 9608 9606 9602 9597 9594 9594 9595 9598 9601 9602 9601 9600 9600 9600 9597 9594
9747 9743 9740 9736 9731 9726 9722 9716 9710 9705 9702 9698 9693 9689 9685 9681 9677 9673 9671 9668 9666 9665 9663 9658 9652 9648 9644 9641 9638 9634 9630 9625 9621 9618 9615 9611 9608 9606 9604 9604 9603 9602 9600 9598 9597 9597 9595 9593 9592 9591 9587 9585 9583 9582 9584 9587 9589 9589 9590 9590 9589 9587 9584
9736 9732 9728 9724 9719 9714 9709 9704 9698 9693 9688 9684 9680 9677 9673 9668 9664 9659 9656 9653 9651 9651 9649 9644 9639 9635 9631 9627 9624 9621 9617 9613 9609 9607 9604 9600 9597 9595 9593 9591 9590 9589 9588 9587 9586 9584 9581 9579 9579 9578 9577 9575 9573 9571 9571 9573 9574 9576 9578 9578 9578 9576 9574
9723 9720 9716 9713 9708 9703 9697 9692 9686 9680 9674 9669 9667 9664 9661 9657 9652 9647 9642 9639 9636 9634 9632 9628 9625 9622 9618 9614 9611 9608 9604 9600 9598 9595 9592 9589 9586 9584 9582 9580 9578 9577 9577 9576 9574 9571 9569 9567 9566 9566 9565 9564 9562 9560 9560 9560 9560 9561 9563 9564 9565 9564 9562
9710 9706 9703 9699 9696 9692 9687 9681 9675 9669 9663 9657 9653 9650 9647 9643 9639 9634 9630 9627 9626 9623 9618 9612 9608 9606 9603 9600 9598 9595 9591 9588 9586 9582 9579 9577 9575 9572 9569 9568 9566 9565 9565 9564 9561 9559 9558 9557 9555 9553 9553 9552 9552 9550 9549 9549 9549 9549 9550 9552 9552 9552 9550
9699 9695 9690 9685 9682 9679 9675 9670 9664 9659 9654 9649 9644 9639 9635 9630 9624 9619 9615 9613 9613 9612 9608 9602 9597 9593 9588 9585 9583 9580 9577 9574 9573 9570 9568 9565 9563 9560 9558 9556 9555 9554 9553 9551 9549 9547 9547 9545 9544 9543 9541 9540 9540 9539 9539 9539 9538 9538 9539 9540 9540 9540 9540
9686 9683 9680 9675 9670 9666 9662 9658 9653 9648 9643 9639 9635 9631 9626 9620 9613 9607 9601 9598 9597 9596 9594 9591 9587 9583 9578 9574 9571 9567 9563 9560 9557 9555 9554 9553 9551 9548 9546 9544 9543 9543 9541 9539 9538 9537 9535 9533 9532 9532 9531 9529 9528 9528 9527 9527 9527 9528 9529 9530 9530 9530 9530
9667 9666 9665 9663 9659 9654 9648 9644 9639 9635 9631 9628 9624 9621 9616 9610 9604 9598 9591 9586 9584 9582 9580 9577 9574 9571 9567 9564 9561 9558 9553 9549 9545 9542 9539 9538 9537 9535 9533 9532 9531 9530 9529 9528 9527 9526 9524 9523 9522 9521 9520 9520 9518 9517 9516 9515 9515 9516 9518 9519 9519 9520 9520
9657 9652 9648 9647 9645 9642 9636 9630 9625 9620 9617 9614 9610 9607 9604 9599 9594 9589 9582 9576 9572 9570 9568 9565 9562 9559 9556 9552 9550 9547 9543 9540 9536 9532 9529 9526 9524 9521 9519 9518 9517 9517 9517 9516 9515 9514 9514 9513 9511 9510 9510 9509 9508 9507 9505 9505 9505 9506 9506 9508 9509 9509 9510